Regional Weather Roundup
Issued by NWS Grand Forks, ND

Home | Current Version | Previous Version | Text Only | Print | Product List | Glossary Off
Versions: 1 2 3 4 5 6 7 8 9 10 11 12 13 14 15 16 17 18 19 20 21 22 23 24 25 26 27 28 29 30 31 32 33 34 35 36 37 38 39 40 41 42 43 44 45 46 47 48 49 50

615
ASUS43 KFGF 140510
RWRFGF
PRAIRIE TO PINES  WEATHER ROUNDUP
NATIONAL WEATHER SERVICE EASTERN NORTH DAKOTA/GRAND FORKS ND
1100 PM CST SAT FEB 13 2016

 **SATELLITE DATA USED TO AUGMENT SKY COVER AT AUTOMATED STATIONS**
 *****  WEATHER ACROSS EASTERN NORTH DAKOTA  *****

CITY           SKY/WX    TMP DP  RH WIND       PRES   REMARKS
GRAND FORKS    FLURRIES  15   3  59 S18G28    30.06F WCI  -2
GRAND FRKS AFB LGT SNOW  12   3  67 S26       30.03F WCI  -8
DEVILS LAKE    FLURRIES  10   6  84 S21       29.90F WCI  -9
FARGO          CLOUDY    13   1  59 S23G30    30.10F WCI  -6
WAHPETON ARPT  CLOUDY    12   3  67 S22       30.12F WCI  -7
$$

 ***** WEATHER ACROSS CENTRAL AND WESTERN NORTH DAKOTA  *****

CITY           SKY/WX    TMP DP  RH WIND       PRES   REMARKS
BISMARCK       CLOUDY    19  13  77 SE9       29.85F WCI   8
MINOT          LGT SNOW  18  12  77 SE8       29.79F VSB 3/4 WCI   8
JAMESTOWN      LGT SNOW  12   8  84 S18       29.92F VSB 1   WCI  -6
MINOT AFB      LGT SNOW  16  14  93 CALM      29.79S FOG
GARRISON         N/A     18  16  92 S9        29.77F WCI   7
WILLISTON      CLOUDY    29  24  82 NW16      29.82R WCI  17
DICKINSON      CLOUDY    33  30  88 NW23G31   29.75S WCI  21
HETTINGER      CLOUDY    35  32  88 W12       29.80F
$$

 *****  OTHER AIRPORT OBSERVATIONS IN OUR AREA  *****

CITY           SKY/WX    TMP DP  RH WIND       PRES   REMARKS
WALHALLA       FAIR      14   5  67 S16G25    29.99F WCI  -2
GRAFTON AIRPOR NOT AVBL
VALLEY CITY AR NOT AVBL
CANDO          NOT AVBL
CAVALIER APRT  NOT AVBL
GWINNER        CLOUDY    14  10  85 SE17      30.04F WCI  -3
SHEYENNE NWR     N/A     11   2  68 S16       29.95S WCI  -6
ROLLA          LGT SNOW   9   5  85 S10       29.86F WCI  -6
 ***** THE ABOVE OBSERVATIONS ARE NON NWS ARE NOT QUALITY
       CONTROLLED AND MAY MIS-REPORT RAIN FOR SNOW...
$$

  *****  WEATHER ACROSS NORTHERN MINNESOTA  *****

CITY           SKY/WX    TMP DP  RH WIND       PRES   REMARKS
FLAG ISLAND    CLOUDY    -2 -15  55 SE9       30.15F WCI -18
WARROAD        CLOUDY     7  -8  51 SE8       30.13F WCI  -6
ROSEAU         CLOUDY     9  -4  56 SE14      30.11F WCI  -8
HALLOCK        CLOUDY    12   3  67 S22       30.07F WCI  -7
THF RVR FALLS  CLOUDY    10  -2  56 SE15G21   30.10F WCI  -6
BAUDETTE       CLOUDY     0 -16  46 SE13      30.15F WCI -18
WASKISH        CLOUDY     3 -11  51 SE8       30.16F WCI -10
CROOKSTON      CLOUDY    12   1  62 S20       30.11F WCI  -6
STEPHEN NDAWN    N/A     12   1  62 S20         N/A  WCI  -6
GREENBUSH NDAW   N/A      9   1  72 SE15        N/A  WCI  -8
$$
  *****  WEATHER ACROSS CENTRAL AND WEST MINNESOTA  *****

CITY           SKY/WX    TMP DP  RH WIND       PRES   REMARKS
FOSSTON        FLURRIES   9  -6  52 SE15      30.10F WCI  -8
BEMIDJI        CLOUDY     5  -7  57 SE10      30.14F WCI -10
PARK RAPIDS    CLOUDY     8  -7  50 SE15      30.13F WCI  -9
ELBOW LAKE     CLOUDY    10   2  71 SE21G26   30.14F WCI -10
WADENA         CLOUDY     9  -4  56 SE15      30.14F WCI  -8
DETROIT LAKES  CLOUDY    10   1  67 SE17G23   30.10F WCI  -7
MOORHEAD       CLOUDY    12   1  62 S25       30.12S WCI  -8
FERGUS FALLS   CLOUDY    10   1  67 S17G26    30.17F WCI  -7
MORRIS MN      CLOUDY    10   3  72 SE25      30.13F WCI -10
STAPLES        CLOUDY     7  -6  56 SE9       30.17F WCI  -7
$$
  *****  WEATHER ELSEWHERE ACROSS MINNESOTA  *****

CITY           SKY/WX    TMP DP  RH WIND       PRES   REMARKS
DULUTH         CLOUDY     0 -14  51 S7        30.27S WCI -13
INTRNTL FALLS  CLOUDY   -11 -18  71 SE7       30.22F WCI -26
ELY            CLOUDY   -15 -20  76 SE5       30.26S WCI -27
CLOQUET        CLOUDY    -2 -17  50 CALM      30.28F
WHEATON        FLURRIES  12   7  79 SE21G29   30.14F WCI  -6
BRAINERD       CLOUDY     3  -9  57 SE5       30.21F WCI  -6
HIBBING        CLOUDY   -13 -17  82 SE6       30.26S WCI -27
ALEXANDRIA     CLOUDY     9  -1  64 SE17      30.15F WCI  -9
SAINT CLOUD    CLOUDY     9  -5  53 SE17      30.25F WCI  -9
MINNEAPOLIS    CLOUDY     7  -7  52 SE10      30.32F WCI  -8
$$

  *****  WEATHER ACROSS SOUTH DAKOTA  *****

CITY           SKY/WX    TMP DP  RH WIND       PRES   REMARKS
SIOUX FALLS    LGT SNOW  13   7  77 S18G28    30.08F WCI  -4
BROOKINGS      FLURRIES  11   7  84 S20       30.06S WCI  -7
WATERTOWN      LGT SNOW  12   6  77 S17G23    30.05F WCI  -5
HURON          FLURRIES  14   8  77 SE20G26   30.00F WCI  -3
SISSETON         N/A     11   5  77 S20       30.09F WCI  -7
ABERDEEN       MIX PCPN  16  10  77 SE30G37   29.96F WCI  -4
MITCHELL       CLOUDY    16   9  74 SE22      30.01F WCI  -2
PIERRE         LGT SNOW  25  23  92 SE8       29.84F FOG     WCI  16
MOBRIDGE       LGT SNOW  20  17  88 SE13      29.83F VSB 3/4 WCI   7
RAPID CITY     CLOUDY    39  30  70 NW25G33   29.88R
$$

  *****  SOME WEATHER IN NEARBY STATES *****

CITY           SKY/WX    TMP DP  RH WIND       PRES   REMARKS
GLASGOW MT     CLEAR     31  27  85 CALM      29.86F
GREAT FALLS MT CLOUDY    38  21  50 SW15      29.95F
CHEYENNE WY    CLEAR     33  25  72 NW21G31   30.05F WCI  21
SCOTTSBLUFF NE CLEAR     33  27  78 NW12      30.03R WCI  24
OMAHA NE       CLOUDY    19   4  51 SE20      30.19F WCI   3
DES MOINES IA  FLURRIES  15   9  76 SE14      30.30F WCI   0
DAVENPORT IA   CLOUDY    17  -2  43 SE10      30.41F WCI   5
CHICAGO IL     CLOUDY    12  -4  48 N3        30.47S
EAU CLAIRE WI  PTCLDY    -7 -12  79 CALM      30.37F
LA CROSSE WI   CLOUDY     1  -9  62 SE5       30.41F WCI  -9
$$

  *****  SOME NATIONAL WEATHER *****

CITY           SKY/WX    TMP DP  RH WIND       PRES   REMARKS
LA GUARDIA NY  PTCLDY     8  -8  48 NW24G35   30.31R WCI -13
RALEIGH NC     CLEAR     22  -2  35 VRB3      30.43F
ATLANTA GA     PTCLDY    32   5  32 N8        30.33F WCI  25
NEW ORLEANS LA CLEAR     48  37  65 CALM      30.32F
OKLAHOMA CITY  CLEAR     47  35  63 SE17      29.98F
ALBUQUERQUE NM PTCLDY    52  19  27 N8        30.12S
SALT LAKE CITY FOG       29  28  96 SW3       30.33F VSB 1/8
LOS ANGELES CA MOCLDY    56  53  90 CALM      30.06S FOG
BOISE ID       CLOUDY    44  29  55 SE10      30.23F
SEATTLE WA     LGT RAIN  45  43  93 S10       30.09F FOG
$$

*** WEATHER ACROSS MANITOBA...SASKATCHEWAN AND ONTARIO ***
                ***ONTARIO***

CITY           SKY/WX    TMP DP  RH WIND       PRES   REMARKS
GERALDTON      CLEAR    -26 -31  75 CALM      30.32S
THUNDER BAY    CLEAR    -15 -20  76 W3        30.40F
SIOUX LOOKOUT  CLEAR     -9 -15  77 SE5       30.22F WCI -21
TORONTO        CLEAR     -9 -22  54 N7        30.47R WCI -24
BIG TROUT LK   PTCLDY    -9 -15  77 S6        30.21F WCI -23
PICKLE LAKE    NOT AVBL
DRYDEN         CLEAR     -4 -13  65 S13       30.19F WCI -23
KENORA         PTCLDY    -2 -13  60 S10       30.14F WCI -19
$$
                *** MANITOBA***

CITY           SKY/WX    TMP DP  RH WIND       PRES   REMARKS
BRANDON        FLURRIES  10   5  79 S8        29.89F WCI  -1
DAUPHIN        FLURRIES   7   3  85 SE10      29.90F WCI  -8
ISLAND LAKE    PTCLDY    -4 -13  65 SE8       30.08F WCI -19
PILOT MOUND      N/A      9   5  85 S21G26      N/A  WCI -11
THE PAS        FLURRIES   7   0  72 S14       29.81F WCI -10
THOMPSON       FLURRIES   1  -9  60 S10G17    29.87F WCI -14
WINNIPEG       CLOUDY    10  -4  52 S20G28    30.04F WCI  -8
LYNN LAKE      LGT SNOW   7   3  85 S9        29.66F WCI  -7
CHURCHILL      MOCLDY     1  -6  71 S16G22    29.86F WCI -18
$$
                ***SASKATCHEWAN***

CITY           SKY/WX    TMP DP  RH WIND       PRES   REMARKS
ESTEVAN        NOT AVBL
KINDERSLEY     PTCLDY    18  16  93 SW7       29.77F WCI   8
LLOYDMINSTER   PTCLDY    28  25  86 SW13G18   29.69F WCI  18
PRINCE ALBERT  FLURRIES  16  12  86 SW5       29.72F WCI   9
REGINA         FLURRIES  21  19  93 W13       29.78R WCI   9
YORKTON        LGT SNOW  10   7  85 S9        29.77F WCI  -2
N. BATTLEFORD  CLEAR     19 N/A N/A SW3       29.74F HAZE
LA RONGE       FLURRIES  12   9  85 S6        29.65F WCI   3
SASKATOON      MOCLDY    21  21 100 SW8       29.75F WCI  12
SWIFT CURRENT  CLEAR     27  25  93 W14G21    29.78F WCI  15
$$
NOTE: THESE ARE AUTOMATED STATIONS WITH LIMITED QUALITY CONTROL
      "FAIR" INDICATES FEW OR NO CLOUDS BELOW 12,000 FEET WITH NO
      SIGNIFICANT WEATHER AND/OR OBSTRUCTIONS TO VISIBILITY.
      SKY/WX - SKY CONDITION AND SIGNIFICANT WEATHER.
      TMP - AIR TEMPERATURE.    DP   - DEWPOINT TEMPERATURE.
      RH  - RELATIVE HUMIDITY.  PRES - PRESSURE.
      HX  - HEAT INDEX.         WCI  - WIND CHILL INDEX.
$




USA.gov is the U.S. government's official web portal to all federal, state and local government web resources and services.